Tracking 20942 objects as of 13-Jul-2020
HD Live streaming from Space Station
objects crossing your sky now

BRAZILSAT 1

Track BRAZILSAT 1 now!
BRAZILSAT 1 is classified as:


NORAD ID: 15561
Int'l Code: 1985-015B
Perigee: 35,976.5 km
Apogee: 36,020.6 km
Inclination: 15.2 °
Period: 1,446.6 minutes
Semi major axis: 42369 km
RCS: 2.7147 m2 (large)
Launch date: February 8, 1985
Source: Brazil (BRAZ)
Launch site: FRENCH GUIANA (FRGUI)
aabbcc
Your satellite tracking list
Your tracking list is empty




NASA's NSSDC Master Catalog

Two Line Element Set (TLE):
1 15561U 85015B   20195.04819609  .00000092  00000-0  00000+0 0  9991
2 15561  15.2106   2.1461 0005200 354.5351   2.5063  0.99545700105058
Source of the keplerian elements: AFSPC